Flag for Germany Weather past 2 weeks in Eschweiler, North Rhine-Westphalia, Germany

Now
68 °F

Sunny.


Feels Like: 68 °F
Forecast: 49 / 76 °F
Wind: 8 mph from Northeast

Location: Geilenkirchen Airport

Current Time: Jul 31, 2015 at 8:37:08 PM

Latest Report: Jul 31, 2015 at 7:50 PM


Visibility: 10 mi

Pressure: 30.04 "Hg

Humidity: 40%

Dew point: 43 °F

Location of EschweilerLocation

Historic Weather in Eschweiler — Graph

°F

Eschweiler temperature yesterday

Maximum temperature yesterday: 64 °F (at 12:50 PM)
Minimum temperature yesterday: 54 °F (at 1:50 AM)
Average temperature yesterday: 57 °F

Past Weeks' High & Low Weather Summary

 TemperatureHumidityPressure
High90 °F (Jul 17, 3:50 PM)100% (Jul 31, 6:50 AM)30.15 "Hg (Jul 31, 6:50 AM)
Low45 °F (Jul 31, 4:50 AM)36% (Jul 17, 3:50 PM)29.56 "Hg (Jul 27, 3:50 AM)
Average65 °F69%29.90 "Hg
* Reported Jul 16 6:50 PM — Jul 31 6:50 PM, Eschweiler, Weather by CustomWeather, © 2015

Note: Actual official high and low records may vary slightly from our data, if they occured in-between our weather recording intervals... More about our weather records

Advertising

Eschweiler weather history for previous 24 hours

 ConditionsComfort  
Time TempWeatherWind HumidityBarometerVisibility
6:50 PM
Fri, Jul 31
68 °FSunny.8 mph40%30.04 "Hg10 mi
5:50 PM68 °FSunny.9 mph40%30.07 "Hg10 mi
4:50 PM68 °FSunny.7 mph40%30.07 "Hg10 mi
3:50 PM68 °FSunny.5 mph43%30.09 "Hg10 mi
2:50 PM66 °FSunny.5 mph46%30.09 "Hg10 mi
1:50 PM66 °FSunny.7 mph43%30.12 "Hg10 mi
12:50 PM64 °FPassing clouds.5 mph46%30.15 "HgN/A
11:50 AM63 °FPassing clouds.5 mph52%30.15 "HgN/A
10:50 AM59 °FPassing clouds.3 mph59%30.15 "HgN/A
9:50 AM59 °FPassing clouds.3 mph63%30.15 "HgN/A
8:50 AM57 °FPassing clouds.1 mph72%30.15 "HgN/A
7:50 AM54 °FSunny.1 mph88%30.15 "Hg10 mi
6:50 AM46 °FFog.1 mph100%30.15 "Hg6 mi
5:50 AM45 °FFog.No wind93%30.15 "HgN/A
4:50 AM45 °FFog.2 mph93%30.15 "HgN/A
3:50 AM46 °FFog.1 mph93%30.15 "HgN/A
2:50 AM48 °FFog.No wind94%30.12 "HgN/A
1:50 AM52 °FFog.1 mph94%30.12 "HgN/A
12:50 AM52 °FPassing clouds.2 mph94%30.12 "HgN/A
11:50 PM
Thu, Jul 30
54 °FPassing clouds.6 mph94%30.12 "HgN/A
10:50 PM54 °FClear.3 mph94%30.12 "Hg10 mi
9:50 PM54 °FPartly sunny.5 mph94%30.09 "HgN/A
8:50 PM54 °FBroken clouds.3 mph94%30.09 "HgN/A
Weather by CustomWeather, © 2015

See weather overviewHow to use our weather pages